User: anonymous   Login
Location: Caltech
(34.1382°N, 118.1253°W)
Time: 00:35:16
(UTC-07:00)
Language:

Cosmos 2219 - Orbit

View from above orbital plane
View from above orbital plane
View from above satellite
View from above satellite

Ground track
Ground track

The orbit data is extracted from the following two-line orbital elements,

1 22219U 92076A   14304.44343258 -.00000200  00000-0 -81280-4 0  6450
2 22219 071.0631 042.3698 0016508 045.9903 023.8642 14.13514261132591
Epoch (UTC): 31 October 2014 10:38:32
Eccentricity: 0.0016508
inclination: 71.0631°
perigee height: 835 km
apogee height: 859 km
right ascension of ascending node: 42.3698°
argument of perigee: 45.9903°
revolutions per day: 14.13514261
mean anomaly at epoch: 23.8642°
orbit number at epoch: 13259

The dashed part of the orbit path shows where the satellite is in the earth's shadow,  

DLR